Statesboro, GA

10:41 PM EST on February 24, 2017 (GMT -0500)
Statesboro-Bulloch County

Weather History for KTBR - December, 2012

Change the Weather History Date:

Thursday, December 13, 2012

  Actual Average (KSBO) Record (KSBO)
Temperature  
Mean Temperature 42 °F -  
Max Temperature 48 °F 64 °F 78 °F (2015)
Min Temperature 35 °F 40 °F 28 °F (2013)
Degree Days  
Heating Degree Days 24    
Moisture  
Dew Point 43 °F    
Average Humidity 99    
Maximum Humidity 100    
Minimum Humidity 87    
Precipitation  
Precipitation 0.00 in - - ()
Sea Level Pressure  
Sea Level Pressure 30.28 in    
Wind  
Wind Speed 6 mph (NNE)    
Max Wind Speed 13 mph    
Max Gust Speed 18 mph    
Visibility 8 miles    
Events Fog , Rain    
Averages and records for this station are not official NWS values.
T = Trace of Precipitation, MM = Missing Value Source: NWS Daily Summary

Daily Weather History Graph

Daily Weather History Graph

Search for Another Location

Airport or City:

Trip Planner

Search our weather history database for the weather conditions in past years. The results will help you decide how hot, cold, wet, or windy it might be!

Date:

Astronomy

Dec. 13, 2012 Rise Set
Actual Time 7:20 AM EST 5:22 PM EST
Civil Twilight 6:53 AM EST 5:49 PM EST
Nautical Twilight 6:22 AM EST 6:20 PM EST
Astronomical Twilight 5:52 AM EST 6:50 PM EST
Moon 7:28 AM EST (12/13) 6:02 PM EST (12/13)
Length of Visible Light 10h 56m
Length of Day
10h 02m
New Moon, 0% of the Moon is Illuminated
Dec 13
New Moon
Dec 20
First Quarter
Dec 28
Full
Jan 4
Last Quarter
Jan 11
New

Hourly Weather History & Observations

Time (EST) Temp. Windchill Dew Point Humidity Pressure Visibility Wind Dir Wind Speed Gust Speed Precip Events Conditions
12:15 AM 46.4 °F 44.3 °F 46.4 °F 100% 30.22 in 2.5 mi NNE 4.6 mph - N/A Rain Heavy Rain
12:35 AM 46.4 °F 44.3 °F 46.4 °F 100% 30.22 in 3.0 mi NNE 4.6 mph - N/A Rain Light Rain
12:55 AM 46.4 °F 42.9 °F 46.4 °F 100% 30.20 in 10.0 mi NE 6.9 mph - N/A Rain Light Rain
1:15 AM 46.4 °F 43.5 °F 46.4 °F 100% 30.21 in 10.0 mi NE 5.8 mph - N/A   Overcast
1:35 AM 44.6 °F 42.2 °F 44.6 °F 100% 30.21 in 10.0 mi NE 4.6 mph - N/A   Overcast
1:55 AM 44.6 °F 41.4 °F 44.6 °F 100% 30.21 in 10.0 mi North 5.8 mph - N/A   Light Drizzle
2:15 AM 44.6 °F 39.7 °F 44.6 °F 100% 30.21 in 10.0 mi North 9.2 mph - N/A Rain Light Rain
2:35 AM 44.6 °F 41.4 °F 44.6 °F 100% 30.21 in 10.0 mi North 5.8 mph - N/A Rain Rain
2:55 AM 44.6 °F 40.7 °F 44.6 °F 100% 30.19 in 5.0 mi NNE 6.9 mph - N/A Rain Rain
3:15 AM 44.6 °F 43.1 °F 44.6 °F 100% 30.19 in 10.0 mi NE 3.5 mph - N/A Rain Light Rain
3:35 AM 44.6 °F 42.2 °F 44.6 °F 100% 30.19 in 10.0 mi NE 4.6 mph - N/A   Overcast
3:55 AM 44.6 °F 40.7 °F 44.6 °F 100% 30.20 in 10.0 mi NNE 6.9 mph - N/A   Overcast
4:15 AM 44.6 °F 40.2 °F 44.6 °F 100% 30.21 in 10.0 mi North 8.1 mph - N/A   Overcast
4:35 AM 44.6 °F 39.7 °F 44.6 °F 100% 30.21 in 10.0 mi North 9.2 mph - N/A   Overcast
4:55 AM 44.6 °F 40.2 °F 44.6 °F 100% 30.22 in 10.0 mi NNE 8.1 mph - N/A   Overcast
5:15 AM 44.6 °F 39.2 °F 44.6 °F 100% 30.22 in 10.0 mi North 10.4 mph - N/A   Overcast
5:35 AM 42.8 °F 37.5 °F 42.8 °F 100% 30.23 in 10.0 mi North 9.2 mph - N/A   Overcast
5:55 AM 42.8 °F 37.5 °F 42.8 °F 100% 30.23 in 10.0 mi North 9.2 mph - N/A   Overcast
6:15 AM 42.8 °F 36.2 °F 42.8 °F 100% 30.24 in 10.0 mi North 12.7 mph 18.4 mph N/A   Overcast
6:35 AM 42.8 °F 36.2 °F 42.8 °F 100% 30.25 in 10.0 mi North 12.7 mph 16.1 mph N/A   Overcast
6:55 AM 42.8 °F 37.5 °F 42.8 °F 100% 30.27 in 7.0 mi North 9.2 mph - N/A   Overcast
7:15 AM 42.8 °F 37.5 °F 42.8 °F 100% 30.28 in 4.0 mi North 9.2 mph - N/A   Overcast
7:35 AM 42.8 °F 39.3 °F 42.8 °F 100% 30.29 in 3.0 mi North 5.8 mph - N/A   Overcast
7:55 AM 42.8 °F 37.5 °F 42.8 °F 100% 30.29 in 5.0 mi North 9.2 mph 16.1 mph N/A   Overcast
8:15 AM 42.8 °F 36.6 °F 42.8 °F 100% 30.30 in 4.0 mi North 11.5 mph 16.1 mph N/A   Overcast
8:35 AM 42.8 °F 37.5 °F 42.8 °F 100% 30.30 in 5.0 mi NNE 9.2 mph - N/A   Overcast
8:55 AM 42.8 °F 37.5 °F 42.8 °F 100% 30.31 in 7.0 mi North 9.2 mph - N/A   Overcast
9:15 AM 42.8 °F 37.5 °F 42.8 °F 100% 30.31 in 10.0 mi NNE 9.2 mph - N/A   Overcast
9:35 AM 42.8 °F 38.0 °F 42.8 °F 100% 30.31 in 10.0 mi NNE 8.1 mph - N/A   Overcast
9:55 AM 42.8 °F 38.0 °F 42.8 °F 100% 30.32 in 10.0 mi NE 8.1 mph - N/A   Overcast
10:15 AM 42.8 °F 38.0 °F 42.8 °F 100% 30.32 in 10.0 mi NNE 8.1 mph - N/A   Overcast
10:35 AM 42.8 °F 37.5 °F 42.8 °F 100% 30.33 in 10.0 mi NE 9.2 mph 17.3 mph N/A   Overcast
10:55 AM 42.8 °F 39.3 °F 42.8 °F 100% 30.34 in 10.0 mi NNE 5.8 mph - N/A   Overcast
11:15 AM 42.8 °F 38.6 °F 42.8 °F 100% 30.34 in 10.0 mi NNE 6.9 mph - N/A   Overcast
11:35 AM 42.8 °F 38.0 °F 42.8 °F 100% 30.34 in 10.0 mi NNE 8.1 mph - N/A   Overcast
11:55 AM 44.6 °F 42.2 °F 44.6 °F 100% 30.34 in 10.0 mi NNE 4.6 mph - N/A   Overcast
12:15 PM 44.6 °F 41.4 °F 44.6 °F 100% 30.32 in 10.0 mi NE 5.8 mph - N/A   Overcast
12:35 PM 44.6 °F 40.2 °F 44.6 °F 100% 30.31 in 10.0 mi NNE 8.1 mph - N/A   Overcast
12:55 PM 44.6 °F 39.7 °F 44.6 °F 100% 30.31 in 10.0 mi NNE 9.2 mph - N/A   Overcast
1:15 PM 44.6 °F 39.7 °F 44.6 °F 100% 30.31 in 10.0 mi NNE 9.2 mph - N/A   Overcast
1:35 PM 44.6 °F 40.2 °F 44.6 °F 100% 30.30 in 10.0 mi NNE 8.1 mph - N/A   Overcast
1:55 PM 44.6 °F 40.7 °F 44.6 °F 100% 30.30 in 10.0 mi NNE 6.9 mph - N/A   Overcast
2:15 PM 46.4 °F 42.9 °F 44.6 °F 93% 30.30 in 10.0 mi NNE 6.9 mph - N/A   Overcast
2:35 PM 46.4 °F 41.9 °F 44.6 °F 93% 30.29 in 10.0 mi NNE 9.2 mph - N/A   Overcast
2:55 PM 46.4 °F 41.5 °F 44.6 °F 93% 30.29 in 10.0 mi NNE 10.4 mph - N/A   Overcast
3:15 PM 46.4 °F 43.5 °F 44.6 °F 93% 30.29 in 10.0 mi NNE 5.8 mph - N/A   Overcast
3:35 PM 46.4 °F 43.5 °F 44.6 °F 93% 30.30 in 10.0 mi NNE 5.8 mph - N/A   Overcast
3:55 PM 46.4 °F 44.3 °F 44.6 °F 93% 30.29 in 10.0 mi NNE 4.6 mph - N/A   Overcast
4:15 PM 46.4 °F 45.2 °F 44.6 °F 93% 30.29 in 10.0 mi NE 3.5 mph - N/A   Overcast
4:35 PM 46.4 °F 45.2 °F 44.6 °F 93% 30.30 in 10.0 mi NE 3.5 mph - N/A   Overcast
4:55 PM 46.4 °F 45.2 °F 44.6 °F 93% 30.30 in 10.0 mi NNE 3.5 mph - N/A   Overcast
5:35 PM 46.4 °F - 42.8 °F 87% 30.30 in 10.0 mi Calm Calm - N/A   Mostly Cloudy
7:55 PM 48.2 °F - 46.4 °F 93% 30.30 in 10.0 mi Calm Calm - N/A   Overcast
8:15 PM 48.2 °F - 46.4 °F 93% 30.30 in 10.0 mi NNE 4.6 mph - N/A   Overcast
8:35 PM 46.4 °F 45.2 °F 46.4 °F 100% 30.31 in 10.0 mi NNE 3.5 mph - N/A   Scattered Clouds
9:15 PM 42.8 °F - 42.8 °F 100% 30.32 in 5.0 mi Calm Calm - N/A   Clear
9:35 PM 41.0 °F - 41.0 °F 100% 30.32 in 0.8 mi Calm Calm - N/A   Mist
9:55 PM 41.0 °F - 41.0 °F 100% 30.33 in 0.5 mi Calm Calm - N/A Fog Fog
10:15 PM 41.0 °F - 41.0 °F 100% 30.33 in 3.0 mi Calm Calm - N/A   Clear
10:35 PM 39.2 °F - 39.2 °F 100% 30.33 in 0.5 mi Calm Calm - N/A Fog Fog
10:55 PM 37.4 °F - 37.4 °F 100% 30.34 in 4.0 mi Calm Calm - N/A   Scattered Clouds
11:15 PM 37.4 °F - 37.4 °F 100% 30.34 in 4.0 mi Calm Calm - N/A   Clear
11:35 PM 35.6 °F - 35.6 °F 100% 30.34 in 0.8 mi Calm Calm - N/A   Mostly Cloudy
11:55 PM 37.4 °F - 37.4 °F 100% 30.34 in 5.0 mi Calm Calm - N/A   Mostly Cloudy